Regional Weather Roundup
Issued by NWS Glasgow, MT

Home | Current Version | Previous Version | Text Only | Print | Product List | Glossary On
Versions: 1 2 3 4 5 6 7 8 9 10 11 12 13 14 15 16 17 18 19 20 21 22 23 24 25 26 27
000
ASUS45 KGGW 222115
RWRGGW
HOURLY WEATHER ROUNDUP FOR NORTHEAST MONTANA
NATIONAL WEATHER SERVICE GLASGOW MONTANA
300 PM MDT WED OCT 22 2014

NOTE: "FAIR" INDICATES FEW OR NO CLOUDS BELOW 12,000 FEET WITH NO
SIGNIFICANT WEATHER AND/OR OBSTRUCTIONS TO VISISBILITY.

NORTHEAST MONTANA


CITY           SKY/WX    TMP DP  RH WIND       PRES   REMARKS
GLASGOW        SUNNY     63  32  31 W17       29.84F
PLENTYWOOD       N/A     59  41  51 W21G29      N/A
WOLF POINT     SUNNY     65  35  33 W21G29    29.84S
JORDAN           N/A     63  30  28 W14G22    29.88F
WINNETT          N/A     62  27  26 W9          N/A
SIDNEY         SUNNY     64  37  36 W24       29.85R
GLENDIVE       SUNNY     63  34  34 W22G28    29.89S
MALTA            N/A     62  32  32 W10         N/A
SCOBEY           N/A     61  34  36 W26G32    29.80

FORT PECK REPORTS


CITY           SKY/WX    TMP DP  RH WIND       PRES   REMARKS
FORT PECK        N/A     62  33  33 W23G31      N/A
THE PINES        N/A     63  29  27 W12G21      N/A

SOUTHEAST MONTANA


CITY           SKY/WX    TMP DP  RH WIND       PRES   REMARKS
BILLINGS       SUNNY     64  22  20 SW10G22   29.94F
MILES CITY     SUNNY     64  29  26 W17G28    29.91F
BAKER          SUNNY     62  30  29 NW20G31   29.92S
LIVINGSTON     SUNNY     60  24  25 SW26G36   29.98F

CENTRAL MONTANA


CITY           SKY/WX    TMP DP  RH WIND       PRES   REMARKS
HAVRE          SUNNY     61  35  37 SW17      29.83F
LEWISTOWN      SUNNY     58  29  33 W13       29.92F
GREAT FALLS    SUNNY     58  32  37 SW29G38   29.88S
CUT BANK       MOSUNNY   57  31  37 W33G45    29.83F
HELENA         SUNNY     61  30  31 W14       29.98F
BUTTE          SUNNY     51  29  42 SW12G17   30.05F
BOZEMAN        SUNNY     56  30  37 CALM      30.02F

WESTERN MONTANA


CITY           SKY/WX    TMP DP  RH WIND       PRES   REMARKS
MISSOULA       SUNNY     59  36  42 S14       29.96F
KALISPELL      NOT AVBL

NORTH DAKOTA


CITY           SKY/WX    TMP DP  RH WIND       PRES   REMARKS
WILLISTON      MOSUNNY   62  41  46 W20       29.80F
DICKINSON      SUNNY     62  35  36 W23G31    29.85S
MINOT          MOSUNNY   61  40  45 W16G25    29.77R
BISMARCK       PTSUNNY   68  40  35 W15       29.84S

SOUTHERN SASKATCHEWAN


CITY           SKY/WX    TMP DP  RH WIND       PRES   REMARKS
REGINA         CLOUDY    50  48  93 W13       29.75R
MOOSE JAW      PTSUNNY   55  48  76 W20G25    29.75R
ESTEVAN        CLOUDY    54  45  71 W17       29.76R
SWIFT CURRENT  SUNNY     59  39  47 W14G20    29.76F




USA.gov is the U.S. government's official web portal to all federal, state and local government web resources and services.